Location: *
(50.3440°N, 18.6237°E)
Time: 18:01:18
(UTC+00:00)

Meteor 1-11 Rocket - Visible Passes

Search period start: 16 April 2021 00:00
Search period end: 26 April 2021 00:00
Orbit: 831 x 916 km, 81.2° (Epoch: 15 April)

Date Brightness Start Highest point End Pass type
(mag) Time Alt. Az. Time Alt. Az. Time Alt. Az.
16 Apr 4.3 00:37:02 10° NNW 00:42:31 42° W 00:42:37 42° W visible
16 Apr 4.8 22:48:23 10° N 22:53:51 38° ENE 22:54:54 36° E visible
17 Apr 4.4 00:31:51 10° NNW 00:37:18 41° W 00:37:23 41° W visible
17 Apr 4.7 22:43:09 10° N 22:48:40 40° ENE 22:49:40 37° E visible
18 Apr 4.4 00:26:41 10° NNW 00:32:05 39° W 00:32:10 39° W visible
18 Apr 4.6 22:37:56 10° N 22:43:29 42° ENE 22:44:28 39° E visible
19 Apr 4.5 00:21:30 10° NNW 00:26:52 37° W 00:26:57 37° W visible
19 Apr 4.5 22:32:41 10° N 22:38:19 43° ENE 22:39:17 40° E visible
20 Apr 4.6 00:16:21 10° NNW 00:21:39 36° W 00:21:46 36° W visible
20 Apr 4.5 22:27:29 10° N 22:33:08 45° ENE 22:34:06 42° E visible
21 Apr 4.6 00:11:11 10° NNW 00:16:26 34° W 00:16:35 34° W visible
21 Apr 6.3 20:42:17 10° NE 20:42:56 10° NE 20:43:34 10° NE visible
21 Apr 4.4 22:22:16 10° N 22:27:58 47° ENE 22:28:56 43° E visible
22 Apr 4.7 00:06:00 10° NNW 00:11:13 33° W 00:11:25 33° W visible
22 Apr 6.2 20:36:31 10° NE 20:37:48 11° NE 20:39:04 10° ENE visible
22 Apr 4.3 22:17:02 10° N 22:22:47 49° ENE 22:23:46 45° E visible
23 Apr 4.8 00:00:51 10° NNW 00:06:00 32° W 00:06:16 32° W visible
23 Apr 6.1 20:30:59 10° NNE 20:32:40 11° NE 20:34:20 10° ENE visible
23 Apr 4.3 22:11:50 10° N 22:17:36 51° ENE 22:18:37 46° ESE visible
23 Apr 4.8 23:55:41 10° NNW 00:00:47 31° W 00:01:07 30° W visible
24 Apr 6.1 20:25:31 10° NNE 20:27:31 12° NE 20:29:31 10° ENE visible
24 Apr 4.2 22:06:36 10° N 22:12:25 53° ENE 22:13:29 47° ESE visible
24 Apr 4.9 23:50:32 10° NNW 23:55:33 29° W 23:55:59 29° W visible
25 Apr 6.1 20:20:07 10° NNE 20:22:23 12° NE 20:24:39 10° ENE visible
25 Apr 4.2 22:01:23 10° N 22:07:14 56° ENE 22:08:22 48° ESE visible
25 Apr 5.0 23:45:22 10° NNW 23:50:19 28° W 23:50:52 28° W visible
